Flag for China Weather past 2 weeks in Tsingtao, Shandong, China

Now
25 °F

Passing clouds.


Feels Like: 18 °F
Forecast: 27 / 33 °F
Wind: 6 mph from Northwest

Location: Qingdao Airport

Current Time: Dec 21, 2014 at 5:43:00 AM

Latest Report: Dec 21, 2014 at 5:00 AM


Visibility: N/A

Pressure: 30.39 "Hg

Humidity: 39%

Dew point: 3 °F

Location of TsingtaoLocation

Historic Weather in Tsingtao — Graph

°F

Tsingtao temperature yesterday

Maximum temperature yesterday: 39 °F (at 1:00 PM)
Minimum temperature yesterday: 25 °F (at 9:00 PM)
Average temperature yesterday: 31 °F

Past Weeks' High & Low Weather Summary

 TemperatureHumidityPressure
High48 °F (Dec 14, 1:00 PM)87% (Dec 7, 8:00 AM)30.66 "Hg (Dec 7, 8:00 AM)
Low21 °F (Dec 6, 4:00 AM)13% (Dec 6, 4:00 PM)30.12 "Hg (Dec 19, 2:00 PM)
Average34 °F52%30.39 "Hg
* Reported Dec 6 4:00 AM — Dec 21 4:00 AM, Tsingtao, Weather by CustomWeather, © 2014

Note: Actual official high and low records may vary slightly from our data, if they occured in-between our weather recording intervals... More about our weather records

Advertising

Tsingtao weather history for previous 24 hours

 ConditionsComfort  
Time TempWeatherWind HumidityBarometerVisibility
4:00 AM
Dec 21
25 °FClear.6 mph42%30.39 "Hg10 mi
3:00 AM21 °FClear.1 mph54%30.42 "Hg10 mi
2:00 AM23 °FClear.1 mph58%30.42 "Hg10 mi
1:00 AM23 °FClear.1 mph58%30.42 "Hg10 mi
12:00 AM23 °FClear.1 mph63%30.45 "Hg10 mi
11:00 PM
Dec 20
25 °FClear.1 mph54%30.45 "Hg10 mi
10:00 PM25 °FClear.1 mph59%30.45 "Hg10 mi
9:00 PM25 °FClear.1 mph54%30.45 "Hg10 mi
8:00 PM27 °FClear.3 mph46%30.45 "Hg10 mi
7:00 PM27 °FClear.6 mph46%30.42 "Hg10 mi
6:00 PM30 °FClear.6 mph40%30.39 "Hg10 mi
5:00 PM32 °FClear.10 mph40%30.36 "Hg10 mi
4:00 PM34 °FSunny.8 mph35%30.36 "Hg10 mi
3:00 PM36 °FPassing clouds.13 mph32%30.36 "HgN/A
2:00 PM39 °FPassing clouds.10 mph28%30.36 "HgN/A
1:00 PM39 °FPassing clouds.10 mph24%30.36 "HgN/A
12:00 PM37 °FPassing clouds.10 mph33%30.39 "HgN/A
11:00 AM37 °FPassing clouds.10 mph35%30.39 "HgN/A
10:00 AM36 °FPassing clouds.8 mph44%30.39 "HgN/A
9:00 AM30 °FPassing clouds.8 mph55%30.39 "HgN/A
8:00 AM28 °FSunny.8 mph59%30.36 "Hg10 mi
7:00 AM27 °FClear.6 mph64%30.36 "Hg10 mi
6:00 AM27 °FClear.6 mph64%30.33 "Hg10 mi
5:00 AM27 °FClear.1 mph64%30.30 "Hg10 mi
Weather by CustomWeather, © 2014

See weather overviewHow to use our weather pages